Date String (YYYY-MM-DD hh:mm:ss) UTC,Instrument flags,Ambient pressure (hPa),Sample flow (lpm),Bypass flow (lpm),Sample temperature (°C),Ambient temperature (°C),ASC tube jacket temperature (°C),LED temperature (°C),Box temperature (°C),Sample RH (%),Span deviation,Mass concentration (μg/m³),Mass concentration (μg/m³),Mass concentration (μg/m³)
DateTimeUTC,F1_M11,P_M11,Q1_M11,Q2_M11,T1_M11,T2_M11,T3_M11,T4_M11,T5_M11,U1_M11,ZSPAN_M11,X2_M11,X0_M11,X1_M11
2022-03-22 13:00:00,,0828.0,4.99,0.00,22.4,22.2,00.0,31.3,24.1,09.1,0000.0,0001.86,0003.06,0001.29
2022-03-22 13:01:00,,0827.9,5.00,0.00,22.3,22.0,00.0,31.3,24.0,09.1,0000.0,0001.82,0003.01,0001.25
2022-03-22 13:02:00,,0828.0,5.00,0.00,22.3,21.8,00.0,31.3,24.0,09.1,0000.0,0001.75,0002.91,0001.21
2022-03-22 13:03:00,,0828.1,4.99,0.00,22.3,21.7,00.0,31.3,23.9,09.2,0000.0,0001.69,0002.80,0001.18
2022-03-22 13:04:00,,0828.0,4.99,0.00,22.2,21.6,00.0,31.2,23.9,09.3,0000.0,0001.63,0002.70,0001.15
2022-03-22 13:05:00,,0828.1,5.01,0.00,22.2,21.5,00.0,31.2,23.9,09.2,0000.0,0001.57,0002.60,0001.12
2022-03-22 13:06:00,,0828.0,5.01,0.00,22.2,21.4,00.0,31.2,23.8,09.0,0000.0,0001.50,0002.44,0001.09
2022-03-22 13:07:00,,0828.1,5.00,0.00,22.1,21.4,00.0,31.2,23.8,09.0,0000.0,0001.42,0002.29,0001.06
2022-03-22 13:08:00,,0828.1,5.00,0.00,22.1,21.3,00.0,31.2,23.8,09.1,0000.0,0001.34,0002.13,0001.02
2022-03-22 13:09:00,,0828.1,5.00,0.00,22.1,21.2,00.0,31.2,23.7,09.2,0000.0,0001.28,0002.01,0000.99
2022-03-22 13:10:00,,0828.1,5.01,0.00,22.0,21.2,00.0,31.2,23.6,09.3,0000.0,0001.21,0001.91,0000.96
2022-03-22 13:11:00,,0828.1,4.99,0.00,22.0,21.1,00.0,31.1,23.6,09.3,0000.0,0001.16,0001.85,0000.94
2022-03-22 13:12:00,,0828.1,4.99,0.00,22.0,21.2,00.0,31.1,23.6,09.2,0000.0,0001.17,0002.37,0000.92
2022-03-22 13:13:00,,0828.1,5.01,0.00,22.1,21.9,00.0,31.2,23.8,09.2,0000.0,0001.16,0002.50,0000.91
2022-03-22 13:14:00,,0828.2,5.01,0.00,22.2,22.8,00.0,31.2,24.1,09.2,0000.0,0001.12,0002.40,0000.90
2022-03-22 13:15:00,,0828.1,4.99,0.00,22.3,23.3,00.0,31.2,24.3,09.2,0000.0,0001.12,0002.42,0000.89
2022-03-22 13:16:00,,0828.2,5.01,0.00,22.4,23.0,00.0,31.2,24.3,09.1,0000.0,0001.09,0002.46,0000.87
2022-03-22 13:17:00,,0828.2,5.00,0.00,22.4,22.7,00.0,31.3,24.2,09.0,0000.0,0001.10,0002.48,0000.87
2022-03-22 13:18:00,,0828.1,4.99,0.00,22.3,22.4,00.0,31.3,24.1,09.0,0000.0,0001.11,0002.55,0000.85
2022-03-22 13:19:00,,0828.1,5.01,0.00,22.3,22.1,00.0,31.3,24.0,09.2,0000.0,0001.12,0002.61,0000.85
2022-03-22 13:20:00,,0828.1,4.99,0.00,22.3,21.9,00.0,31.3,23.9,09.1,0000.0,0001.11,0002.59,0000.85
2022-03-22 13:21:00,,0828.1,5.00,0.00,22.2,21.7,00.0,31.3,23.9,09.2,0000.0,0001.11,0002.62,0000.84
2022-03-22 13:22:00,,0828.2,5.00,0.00,22.2,21.6,00.0,31.2,23.8,09.2,0000.0,0001.13,0002.66,0000.84
2022-03-22 13:23:00,,0828.1,5.01,0.00,22.1,21.5,00.0,31.2,23.8,09.2,0000.0,0001.14,0002.34,0000.84
2022-03-22 13:24:00,,0828.4,5.00,0.00,22.1,21.4,00.0,31.2,23.8,09.4,0000.0,0001.13,0002.01,0000.84
2022-03-22 13:25:00,,0828.2,5.00,0.00,22.1,21.3,00.0,31.2,23.7,09.5,0000.0,0001.16,0002.08,0000.86
2022-03-22 13:26:00,,0828.1,5.00,0.00,22.0,21.3,00.0,31.2,23.7,09.3,0000.0,0001.17,0002.13,0000.85
2022-03-22 13:27:00,,0828.2,4.99,0.00,22.0,21.2,00.0,31.2,23.6,09.0,0000.0,0001.17,0002.05,0000.84
2022-03-22 13:28:00,,0828.1,5.00,0.00,22.0,21.1,00.0,31.1,23.6,09.1,0000.0,0001.18,0002.04,0000.84
2022-03-22 13:29:00,,0828.1,5.00,0.00,21.9,21.0,00.0,31.1,23.5,09.1,0000.0,0001.20,0002.07,0000.84
2022-03-22 13:30:00,,0828.1,5.00,0.00,21.9,20.9,00.0,31.1,23.4,09.2,0000.0,0001.20,0002.01,0000.84
2022-03-22 13:31:00,,0828.2,5.01,0.00,21.9,21.2,00.0,31.1,23.5,09.2,0000.0,0001.21,0001.98,0000.84
2022-03-22 13:32:00,,0828.3,5.00,0.00,22.0,22.2,00.0,31.1,23.8,09.2,0000.0,0001.17,0001.82,0000.84
2022-03-22 13:33:00,,0828.3,5.01,0.00,22.2,23.2,00.0,31.2,24.1,09.2,0000.0,0001.13,0001.77,0000.82
2022-03-22 13:34:00,,0828.4,4.99,0.00,22.3,23.3,00.0,31.2,24.2,09.1,0000.0,0001.12,0001.69,0000.82
2022-03-22 13:35:00,,0828.3,5.01,0.00,22.3,22.9,00.0,31.2,24.2,09.2,0000.0,0001.10,0001.75,0000.81
2022-03-22 13:36:00,,0828.3,5.00,0.00,22.3,22.5,00.0,31.2,24.1,09.4,0000.0,0001.08,0001.72,0000.80
2022-03-22 13:37:00,,0828.3,5.00,0.00,22.2,22.2,00.0,31.2,24.0,09.4,0000.0,0001.08,0001.78,0000.79
2022-03-22 13:38:00,,0828.4,5.00,0.00,22.2,22.0,00.0,31.2,23.9,09.3,0000.0,0001.11,0001.96,0000.79
2022-03-22 13:39:00,,0828.4,5.01,0.00,22.2,21.8,00.0,31.2,23.9,09.4,0000.0,0001.11,0001.98,0000.79
2022-03-22 13:40:00,,0828.4,4.99,0.00,22.2,21.7,00.0,31.2,23.8,09.5,0000.0,0001.09,0002.04,0000.80
2022-03-22 13:41:00,,0828.4,5.01,0.00,22.1,21.5,00.0,31.2,23.8,09.4,0000.0,0001.07,0001.99,0000.79
2022-03-22 13:42:00,,0828.4,5.00,0.00,22.1,21.4,00.0,31.2,23.7,09.3,0000.0,0001.11,0002.10,0000.79
2022-03-22 13:43:00,,0828.4,5.00,0.00,22.1,21.3,00.0,31.2,23.7,09.3,0000.0,0001.13,0002.24,0000.79
2022-03-22 13:44:00,,0828.4,5.00,0.00,22.0,21.2,00.0,31.1,23.6,09.4,0000.0,0001.16,0002.34,0000.80
2022-03-22 13:45:00,,0828.4,4.99,0.00,22.0,21.2,00.0,31.1,23.6,09.4,0000.0,0001.18,0002.40,0000.80
2022-03-22 13:46:00,,0828.4,5.00,0.00,22.0,21.1,00.0,31.1,23.6,09.6,0000.0,0001.24,0002.44,0000.82
2022-03-22 13:47:00,,0828.4,5.00,0.00,21.9,21.1,00.0,31.1,23.5,09.4,0000.0,0001.24,0002.42,0000.81
2022-03-22 13:48:00,,0828.5,5.00,0.00,21.9,21.0,00.0,31.1,23.5,09.6,0000.0,0001.25,0002.35,0000.82
2022-03-22 13:49:00,,0828.6,5.00,0.00,21.9,21.0,00.0,31.1,23.5,09.5,0000.0,0001.23,0002.23,0000.82
2022-03-22 13:50:00,,0829.0,5.01,0.00,21.9,21.6,00.0,31.1,23.6,09.5,0000.0,0001.21,0002.19,0000.82
2022-03-22 13:51:00,,0829.1,5.00,0.00,22.1,22.6,00.0,31.1,23.9,09.6,0000.0,0001.22,0002.15,0000.82
2022-03-22 13:52:00,,0828.5,4.99,0.00,22.2,23.4,00.0,31.1,24.2,09.3,0000.0,0001.23,0002.19,0000.82
2022-03-22 13:53:00,,0828.5,5.01,0.00,22.3,23.2,00.0,31.2,24.2,09.3,0000.0,0001.19,0002.10,0000.82
2022-03-22 13:54:00,,0828.5,4.98,0.00,22.3,22.8,00.0,31.2,24.2,09.3,0000.0,0001.17,0002.01,0000.82
2022-03-22 13:55:00,,0828.4,4.99,0.00,22.3,22.5,00.0,31.2,24.1,09.4,0000.0,0001.14,0001.82,0000.81
2022-03-22 13:56:00,,0828.5,5.01,0.00,22.3,22.2,00.0,31.2,24.0,09.4,0000.0,0001.11,0001.72,0000.80
2022-03-22 13:57:00,,0828.4,4.99,0.00,22.2,22.0,00.0,31.2,23.9,09.4,0000.0,0001.10,0001.71,0000.80
2022-03-22 13:58:00,,0828.6,5.02,0.00,22.2,21.8,00.0,31.2,23.9,09.5,0000.0,0001.10,0002.36,0000.80
2022-03-22 13:59:00,,0828.7,5.00,0.00,22.2,21.6,00.0,31.2,23.8,09.5,0000.0,0001.08,0002.33,0000.79
